AAL51 KMIA-KDFW

Flight info

Callsign AAL51
Flight time N/A
Altitude 36000
Route GLADZ4 BAGGS REMIS Y280 NAITE/N0484F380 Y280 REDFN Q105 HRV PNUTS WHINY4
Aircraft B77W/H-SDE1E2E3FGHIJ2J3J4J5M1RWXY/LB1D1

Departure

Time 2026-04-30 22:11
Airport Miami International Airport (KMIA)

Arrival

Time N/A
Airport Dallas Fort Worth International Airport (KDFW)
Time Latitude Longitude Altitude Speed Heading
2026-04-30 21:45 25.79777 -80.27958 20 ft 0 kts 177°
2026-04-30 22:03 25.79787 -80.27958 29 ft 4 kts 179°
2026-04-30 22:04 25.79814 -80.27957 21 ft 4 kts 186°
2026-04-30 22:04 25.79841 -80.27952 23 ft 4 kts 196°
2026-04-30 22:04 25.79880 -80.27922 22 ft 2 kts 265°
2026-04-30 22:05 25.79881 -80.27920 22 ft 0 kts 268°
2026-04-30 22:06 25.79886 -80.27940 24 ft 11 kts 293°
2026-04-30 22:06 25.79932 -80.28083 20 ft 20 kts 281°
2026-04-30 22:07 25.79958 -80.28227 20 ft 19 kts 269°
2026-04-30 22:07 25.79950 -80.28374 20 ft 19 kts 266°
2026-04-30 22:07 25.79944 -80.28521 20 ft 19 kts 267°
2026-04-30 22:07 25.79939 -80.28668 20 ft 19 kts 267°
2026-04-30 22:08 25.79933 -80.28815 23 ft 19 kts 268°
2026-04-30 22:08 25.79928 -80.28962 20 ft 19 kts 267°
2026-04-30 22:08 25.79921 -80.29109 20 ft 19 kts 267°
2026-04-30 22:08 25.79915 -80.29256 20 ft 19 kts 268°
2026-04-30 22:09 25.79909 -80.29403 20 ft 19 kts 267°
2026-04-30 22:09 25.79902 -80.29550 20 ft 19 kts 267°
2026-04-30 22:09 25.79900 -80.29731 19 ft 23 kts 280°
2026-04-30 22:09 25.79957 -80.29898 19 ft 23 kts 291°
2026-04-30 22:10 25.80002 -80.30071 18 ft 22 kts 288°
2026-04-30 22:10 25.80049 -80.30121 19 ft 9 kts
2026-04-30 22:10 25.80075 -80.30052 18 ft 17 kts 89°
2026-04-30 22:10 25.80086 -80.29800 18 ft 61 kts 88°
2026-04-30 22:11 25.80177 -80.27766 130 ft 181 kts 90°
2026-04-30 22:11 25.80259 -80.26370 887 ft 180 kts 91°
2026-04-30 22:11 25.80338 -80.24929 1550 ft 195 kts 91°
2026-04-30 22:12 25.80418 -80.23410 2218 ft 200 kts 91°
2026-04-30 22:12 25.80498 -80.21819 2758 ft 212 kts 89°
2026-04-30 22:12 25.80599 -80.20151 3337 ft 220 kts 87°
2026-04-30 22:12 25.80718 -80.18468 4081 ft 216 kts 85°
2026-04-30 22:13 25.80900 -80.16817 4771 ft 217 kts 70°
2026-04-30 22:13 25.81812 -80.15448 5082 ft 234 kts 28°
2026-04-30 22:13 25.83419 -80.15016 5389 ft 248 kts 350°
2026-04-30 22:13 25.85089 -80.15381 6138 ft 252 kts 347°
2026-04-30 22:14 25.86880 -80.15673 6790 ft 268 kts 352°
2026-04-30 22:14 25.88777 -80.15757 7568 ft 276 kts 355°
2026-04-30 22:14 25.90677 -80.16076 8378 ft 278 kts 340°
2026-04-30 22:14 25.92529 -80.16793 9155 ft 286 kts 338°
2026-04-30 22:15 25.94415 -80.17500 10178 ft 285 kts 340°
2026-04-30 22:15 25.96331 -80.18184 10909 ft 294 kts 336°
2026-04-30 22:15 25.98092 -80.19468 11109 ft 318 kts 310°
2026-04-30 22:15 25.99172 -80.21662 11320 ft 344 kts 285°
2026-04-30 22:16 25.99544 -80.24359 11648 ft 361 kts 276°
2026-04-30 22:16 25.99812 -80.27179 12375 ft 370 kts 276°
2026-04-30 22:17 25.99782 -80.35945 14952 ft 384 kts 270°
2026-04-30 22:17 25.99762 -80.38929 15817 ft 387 kts 271°
2026-04-30 22:17 25.98471 -80.44754 17145 ft 406 kts 241°
2026-04-30 22:18 25.96773 -80.47283 17864 ft 412 kts 235°
2026-04-30 22:18 25.93127 -80.52314 19148 ft 423 kts 234°
2026-04-30 22:19 25.89420 -80.57479 20431 ft 432 kts 235°
2026-04-30 22:19 25.87549 -80.60112 21053 ft 436 kts 235°
2026-04-30 22:19 25.83779 -80.65439 22288 ft 446 kts 235°
2026-04-30 22:20 25.81854 -80.68158 22871 ft 450 kts 235°
2026-04-30 22:20 25.78151 -80.73814 23816 ft 454 kts 247°
2026-04-30 22:20 25.77155 -80.77112 24219 ft 451 kts 258°
2026-04-30 22:21 25.76375 -80.80502 24682 ft 454 kts 257°
2026-04-30 22:21 25.75520 -80.83884 25212 ft 456 kts 256°
2026-04-30 22:21 25.74609 -80.87255 25725 ft 457 kts 255°
2026-04-30 22:21 25.73687 -80.90596 26218 ft 459 kts 255°
2026-04-30 22:22 25.72739 -80.94039 26686 ft 463 kts 255°
2026-04-30 22:22 25.71812 -80.97418 27119 ft 466 kts 255°
2026-04-30 22:22 25.70867 -81.00870 27586 ft 468 kts 255°
2026-04-30 22:22 25.69920 -81.04329 28060 ft 470 kts 255°
2026-04-30 22:23 25.68966 -81.07810 28517 ft 472 kts 254°
2026-04-30 22:23 25.68009 -81.11298 28938 ft 474 kts 254°
2026-04-30 22:23 25.67046 -81.14806 29301 ft 477 kts 254°
2026-04-30 22:23 25.66075 -81.18338 29652 ft 479 kts 254°
2026-04-30 22:24 25.65401 -81.21931 29855 ft 480 kts 267°
2026-04-30 22:24 25.65604 -81.25634 30113 ft 483 kts 280°
2026-04-30 22:24 25.66577 -81.29182 30514 ft 482 kts 294°
2026-04-30 22:24 25.68095 -81.32480 30890 ft 480 kts 297°
2026-04-30 22:25 25.69635 -81.35704 31277 ft 479 kts 297°
2026-04-30 22:25 25.71181 -81.38963 31812 ft 475 kts 297°
2026-04-30 22:25 25.72697 -81.42208 32337 ft 472 kts 296°
2026-04-30 22:25 25.74184 -81.45436 32826 ft 469 kts 296°
2026-04-30 22:26 25.77118 -81.51886 33704 ft 466 kts 296°
2026-04-30 22:26 25.78570 -81.55092 34118 ft 464 kts 296°
2026-04-30 22:26 25.80017 -81.58289 34499 ft 462 kts 297°
2026-04-30 22:27 25.81455 -81.61466 34883 ft 460 kts 297°
2026-04-30 22:27 25.82889 -81.64635 35262 ft 458 kts 297°
2026-04-30 22:27 25.85718 -81.70890 35961 ft 455 kts 297°
2026-04-30 22:28 25.90635 -81.79850 35958 ft 452 kts 318°
2026-04-30 22:29 26.00783 -81.88197 35967 ft 458 kts 322°
2026-04-30 22:31 26.18539 -82.03158 35951 ft 453 kts 322°
2026-04-30 22:32 26.30988 -82.13682 35956 ft 449 kts 322°
2026-04-30 22:33 26.43424 -82.24223 35960 ft 449 kts 322°
2026-04-30 22:35 26.55856 -82.34791 35954 ft 449 kts 322°
2026-04-30 22:36 26.68284 -82.45384 35963 ft 449 kts 321°
2026-04-30 22:37 26.78163 -82.53827 35949 ft 447 kts 321°
2026-04-30 22:38 26.88027 -82.62276 35956 ft 445 kts 321°
2026-04-30 22:39 26.95388 -82.68593 35956 ft 445 kts 321°
2026-04-30 22:40 27.10107 -82.81258 35952 ft 444 kts 321°
2026-04-30 22:41 27.15277 -82.89538 35974 ft 438 kts 290°
2026-04-30 22:41 27.17259 -82.96036 35972 ft 441 kts 291°
2026-04-30 22:43 27.23469 -83.15596 35947 ft 446 kts 291°
2026-04-30 22:44 27.27634 -83.28704 35951 ft 444 kts 291°
2026-04-30 22:45 27.33820 -83.48268 35960 ft 440 kts 291°
2026-04-30 22:47 27.39894 -83.67580 35954 ft 436 kts 290°
2026-04-30 22:48 27.43922 -83.80445 35951 ft 436 kts 290°
2026-04-30 22:49 27.49962 -83.99829 35951 ft 438 kts 290°
2026-04-30 22:51 27.55666 -84.18232 35951 ft 439 kts 290°
2026-04-30 22:52 27.58667 -84.27955 35949 ft 439 kts 290°
2026-04-30 22:53 27.62674 -84.40979 35948 ft 439 kts 289°
2026-04-30 22:53 27.65669 -84.50745 35949 ft 439 kts 289°
2026-04-30 22:55 27.70633 -84.66994 35951 ft 439 kts 289°
2026-04-30 22:56 27.74603 -84.80044 35946 ft 439 kts 289°
2026-04-30 22:57 27.79525 -84.96294 35949 ft 438 kts 289°
2026-04-30 22:58 27.83457 -85.09332 35950 ft 438 kts 289°
2026-04-30 22:59 27.89318 -85.28839 35947 ft 436 kts 289°